Location: Martley
(52.2333°N, 2.3667°W)
Time: 00:03:27
(UTC+00:00)

ATLAS 5 CENTAUR R/B - Pass Details

Date: 11 December 2019
Orbit: 550 x 1109 km, 63.4° (Epoch: 16 January)

Event Time Altitude Azimuth Distance (km) Brightness Sun altitude
Exits shadow 05:47:59 30° 333° (NNW) 1,244 2.8 -20.1°
Maximum altitude 05:48:19 30° 341° (NNW) 1,245 2.8 -20.1°
Drops below altitude 10° 05:52:57 10° 42° (NE) 2,324 4.9 -19.4°
Sets 05:55:51 0° 53° (NE) 3,361 5.9 -19.0°
